Regional Weather Roundup
Issued by NWS Albany, NY

Home | Current Version | Previous Version | Text Only | Print | Product List | Glossary On
Versions: 1 2 3 4 5 6 7 8 9 10 11 12 13 14 15 16 17 18 19 20 21 22 23 24 25 26 27 28 29 30 31 32 33 34 35 36 37 38 39 40 41 42 43 44 45 46 47 48 49 50
000
ASUS41 KALY 260010
RWRALY

NEW YORK STATE HOURLY WEATHER ROUNDUP
NATIONAL WEATHER SERVICE ALBANY NY
800 PM EDT WED MAY 25 2016

NOTE: "FAIR" INDICATES FEW OR NO CLOUDS BELOW 12,000 FEET WITH NO
SIGNIFICANT WEATHER AND/OR NO OBSTRUCTIONS TO VISIBILITY.

NYZ032-033-038>043-046>054-057>066-NYZ062>081-082-084-260100-
EAST


CITY           SKY/WX    TMP DP  RH WIND       PRES   REMARKS
ALBANY         PTCLDY    79  52  38 NW9       30.00S
GLENS FALLS    CLEAR     80  51  36 W5        29.98R
POUGHKEEPSIE   CLOUDY    81  53  37 E3        30.00S
NEWBURGH       PTCLDY    82  52  34 NE9       30.04R
MONTGOMERY     CLEAR     78  57  48 CALM      30.02R
WHITE PLAINS   CLEAR     81  43  26 VRB3      30.03R
ISLIP          PTCLDY    73  49  42 SW10      30.04R
NEW YORK CITY  PTCLDY    86  50  28 SW9       30.02R
CENTRAL PARK   CLEAR     83  42  23 W3        30.06R
$$

NYZ005>009-017-018-044>046-055-056-260100-
CENTRAL


CITY           SKY/WX    TMP DP  RH WIND       PRES   REMARKS
FULTON         CLEAR     75  56  51 W3        30.03S
SYRACUSE       MOCLDY    76  52  43 W6        30.03S
ROME           CLEAR     72  56  57 N3        30.04S
ELMIRA         CLEAR     77  55  46 N5        30.04S
BINGHAMTON     CLEAR     75  51  43 N6        30.09R
MONTICELLO     CLEAR     75  52  43 CALM      30.10R
$$

NYZ026>034-041>043-087-260100-
NORTH


CITY           SKY/WX    TMP DP  RH WIND       PRES   REMARKS
WATERTOWN      PTCLDY    71  51  49 SW6       30.01S
FORT DRUM      NOT AVBL
MASSENA        CLEAR     74  54  49 N7        30.02R
SARANAC LAKE   PTCLDY    71  50  47 VRB5      30.04R
PLATTSBURGH    CLEAR     77  53  43 NW9       29.98R
$$

NYZ001>004-010>016-019>021-085-260100-
WEST


CITY           SKY/WX    TMP DP  RH WIND       PRES   REMARKS
NIAGARA FALLS  PTCLDY    78  50  37 SW10      30.03S
BUFFALO        PTCLDY    70  53  54 S9        30.06S
DUNKIRK        CLEAR     75  53  46 SW3       30.07S
JAMESTOWN      CLEAR     73  48  40 N5        30.12S
WELLSVILLE     CLEAR     74  51  44 NW9       30.13R
ROCHESTER      CLOUDY    80  49  33 W9        30.04S
PENN YAN       CLOUDY    80  49  33 NW5       30.07R
$$

             KEY
       WCI = WIND CHILL INDEX
       VSB = VISIBILITY
       HX  = HEAT INDEX
$$



USA.gov is the U.S. government's official web portal to all federal, state and local government web resources and services.